Flag for Japan Weather past 2 weeks in Kawasaki, Japan

Now
84 °F

Scattered clouds.


Feels Like: 87 °F
Forecast: 76 / 85 °F
Wind: 17 mph from Southwest

Location: Tokyo International Airport

Current Time: Jul 29, 2014 at 5:44:11 PM

Latest Report: Jul 29, 2014 at 5:00 PM


Visibility: N/A

Pressure: 29.92 "Hg

Humidity: 55%

Dew point: 66 °F

Location of KawasakiLocation

Historic Weather in Kawasaki — Graph

°F

Kawasaki temperature yesterday

Maximum temperature yesterday: 84 °F (at 12:30 PM)
Minimum temperature yesterday: 77 °F (at 3:00 AM)
Average temperature yesterday: 80 °F

Past Weeks' High & Low Weather Summary

 TemperatureHumidityPressure
High91 °F (Jul 24, 4:00 PM)100% (Jul 18, 4:00 AM)29.95 "Hg (Jul 18, 4:00 AM)
Low72 °F (Jul 19, 2:00 AM)49% (Jul 29, 3:30 PM)29.53 "Hg (Jul 27, 1:30 PM)
Average80 °F78%29.81 "Hg
* Reported Jul 14 4:00 PM — Jul 29 4:30 PM, Kawasaki, Weather by CustomWeather, © 2014

Note: Actual official high and low records may vary slightly from our data, if they occured in-between our weather recording intervals... More about our weather records

Advertising

Kawasaki weather history for previous 24 hours

 ConditionsComfort  
Time TempWeatherWind HumidityBarometerVisibility
4:30 PM
Jul 29
84 °FPartly sunny.18 mph55%29.92 "HgN/A
4:00 PM86 °FPartly sunny.18 mph52%29.92 "HgN/A
3:30 PM88 °FPassing clouds.17 mph49%29.92 "HgN/A
3:00 PM86 °FScattered clouds.18 mph55%29.92 "HgN/A
2:30 PM88 °FPassing clouds.17 mph52%29.92 "HgN/A
2:00 PM88 °FPassing clouds.16 mph52%29.92 "HgN/A
1:30 PM86 °FPassing clouds.17 mph52%29.92 "HgN/A
1:00 PM88 °FPassing clouds.16 mph52%29.92 "HgN/A
12:30 PM86 °FScattered clouds.14 mph59%29.95 "HgN/A
12:00 PM86 °FPartly sunny.14 mph55%29.95 "HgN/A
11:30 AM84 °FPartly sunny.9 mph62%29.95 "HgN/A
11:00 AM82 °FScattered clouds.7 mph58%29.95 "HgN/A
10:30 AM82 °FPassing clouds.6 mph55%29.95 "HgN/A
10:00 AM82 °FPassing clouds.6 mph58%29.95 "HgN/A
9:30 AM81 °FPassing clouds.6 mph66%29.95 "HgN/A
9:00 AM81 °FPassing clouds.6 mph70%29.95 "HgN/A
8:30 AM81 °FPassing clouds.6 mph66%29.95 "HgN/A
8:00 AM81 °FPassing clouds.5 mph70%29.95 "HgN/A
7:30 AM79 °FPassing clouds.3 mph70%29.95 "HgN/A
7:00 AM79 °FPassing clouds.2 mph65%29.95 "HgN/A
6:30 AM79 °FPassing clouds.2 mph65%29.92 "HgN/A
6:00 AM77 °FPassing clouds.3 mph74%29.92 "HgN/A
5:30 AM77 °FPassing clouds.3 mph74%29.92 "HgN/A
5:00 AM77 °FPassing clouds.3 mph69%29.89 "HgN/A
4:30 AM77 °FPassing clouds.2 mph69%29.89 "HgN/A
4:00 AM77 °FPassing clouds.2 mph69%29.89 "HgN/A
3:30 AM77 °FClear.2 mph69%29.86 "Hg10 mi
3:00 AM77 °FClear.2 mph74%29.86 "Hg10 mi
2:30 AM75 °FClear.3 mph74%29.86 "Hg10 mi
2:00 AM75 °FClear.2 mph74%29.86 "Hg10 mi
1:30 AM77 °FClear.5 mph69%29.86 "Hg10 mi
1:00 AM79 °FClear.7 mph65%29.86 "Hg10 mi
12:30 AM77 °FPassing clouds.9 mph69%29.86 "HgN/A
12:00 AM79 °FPassing clouds.12 mph65%29.86 "HgN/A
11:30 PM
Jul 28
79 °FClear.10 mph65%29.86 "Hg10 mi
11:00 PM79 °FClear.9 mph65%29.86 "Hg10 mi
10:30 PM77 °FPassing clouds.9 mph69%29.86 "HgN/A
10:00 PM79 °FClear.12 mph65%29.86 "Hg10 mi
9:30 PM79 °FClear.9 mph65%29.86 "Hg10 mi
9:00 PM79 °FClear.10 mph70%29.86 "Hg10 mi
8:30 PM79 °FClear.12 mph70%29.83 "Hg10 mi
8:00 PM79 °FPassing clouds.13 mph65%29.83 "HgN/A
7:30 PM81 °FPassing clouds.14 mph54%29.80 "HgN/A
7:00 PM81 °FPassing clouds.14 mph54%29.80 "HgN/A
6:30 PM81 °FPassing clouds.15 mph58%29.77 "HgN/A
6:00 PM82 °FPassing clouds.16 mph55%29.77 "HgN/A
5:30 PM82 °FPassing clouds.14 mph51%29.77 "HgN/A
5:00 PM84 °FScattered showers. Passing clouds.16 mph51%29.77 "HgN/A
Weather by CustomWeather, © 2014

See weather overviewHow to use our weather pages